Tracking 17152 objects as of 4-May-2015
HD Live streaming from Space Station

GLOBALSTAR M059

Track GLOBALSTAR M059 now!
10-day predictions
GLOBALSTAR M059 is classified as:


NORAD ID: 25944
Int'l Code: 1999-058B
Perigee: 1,419.3 km
Apogee: 1,422.2 km
Inclination: 52.0 °
Period: 114.1 minutes
Semi major axis: 7791 km
RCS: 2.6566 m2 (large)
Launch date: October 18, 1999
Source: Globalstar (GLOB)
Your satellite tracking list
Your tracking list is empty





NASA's NSSDC Master Catalog

Two Line Element Set (TLE):
1 25944U 99058B   15123.54783022 -.00000101  00000-0  16653-4 0  9996
2 25944 052.0042 237.0940 0001864 154.8279 288.6689 12.62275881716912

Source of the keplerian elements: AFSPC

N2YO: 3074